Time,TemperatureF,DewpointF,PressureIn,WindDirection,WindDirectionDegrees,WindSpeedMPH,WindSpeedGustMPH,Humidity,HourlyPrecipIn,Conditions,Clouds,dailyrainin,SoftwareType,DateUTC
2013-03-30 00:00:00,38.8,29.9,30.09,West,270,3.5,3.5,70,0.00,CLR,,0.00,WeatherDisplay:10.37,2013-03-30 04:00:00,
2013-03-30 00:01:00,38.7,29.8,30.09,West,270,0.0,0.0,70,0.00,CLR,,0.00,WeatherDisplay:10.37,2013-03-30 04:01:00,
2013-03-30 00:03:00,38.8,29.9,30.09,West,270,0.0,0.0,70,0.00,CLR,,0.00,WeatherDisplay:10.37,2013-03-30 04:03:00,
2013-03-30 00:08:00,38.9,30.0,30.09,West,270,0.0,0.0,70,0.00,CLR,,0.00,WeatherDisplay:10.37,2013-03-30 04:08:00,
2013-03-30 00:13:00,39.0,30.1,30.09,West,270,0.0,0.0,70,0.00,CLR,,0.00,WeatherDisplay:10.37,2013-03-30 04:13:00,
2013-03-30 00:18:00,38.8,29.9,30.09,West,270,0.0,0.0,70,0.00,CLR,,0.00,WeatherDisplay:10.37,2013-03-30 04:18:00,
2013-03-30 00:23:00,38.7,29.8,30.09,West,270,0.0,0.0,70,0.00,CLR,,0.00,WeatherDisplay:10.37,2013-03-30 04:23:00,
2013-03-30 00:28:00,38.7,30.1,30.09,West,270,0.0,0.0,71,0.00,CLR,,0.00,WeatherDisplay:10.37,2013-03-30 04:28:00,
2013-03-30 00:33:00,38.4,29.9,30.09,West,270,0.0,0.0,71,0.00,CLR,,0.00,WeatherDisplay:10.37,2013-03-30 04:33:00,
2013-03-30 00:38:00,38.4,30.2,30.10,West,270,0.0,0.0,72,0.00,CLR,,0.00,WeatherDisplay:10.37,2013-03-30 04:38:00,
2013-03-30 00:43:00,38.3,30.1,30.10,West,270,0.0,0.0,72,0.00,CLR,,0.00,WeatherDisplay:10.37,2013-03-30 04:43:00,
2013-03-30 00:48:00,38.1,29.9,30.10,West,270,0.0,0.0,72,0.00,CLR,,0.00,WeatherDisplay:10.37,2013-03-30 04:48:00,
2013-03-30 00:53:00,38.5,30.3,30.10,West,270,0.0,0.0,72,0.00,CLR,,0.00,WeatherDisplay:10.37,2013-03-30 04:53:00,
2013-03-30 00:58:00,38.5,30.3,30.10,West,270,0.0,0.0,72,0.00,CLR,,0.00,WeatherDisplay:10.37,2013-03-30 04:58:00,
2013-03-30 01:03:00,38.6,30.4,30.10,West,270,0.0,0.0,72,0.00,CLR,,0.00,WeatherDisplay:10.37,2013-03-30 05:03:00,
2013-03-30 01:08:00,38.6,30.4,30.10,West,270,0.0,0.0,72,0.00,CLR,,0.00,WeatherDisplay:10.37,2013-03-30 05:08:00,
2013-03-30 01:13:00,38.6,30.4,30.10,ENE,69,3.5,3.5,72,0.00,CLR,,0.00,WeatherDisplay:10.37,2013-03-30 05:13:00,
2013-03-30 01:18:00,38.7,30.5,30.10,NNW,342,1.2,0.0,72,0.00,CLR,,0.00,WeatherDisplay:10.37,2013-03-30 05:18:00,
2013-03-30 01:23:00,38.6,30.4,30.10,NW,326,2.3,2.3,72,0.00,CLR,,0.00,WeatherDisplay:10.37,2013-03-30 05:23:00,
2013-03-30 01:28:00,38.8,30.6,30.10,NE,52,4.6,4.6,72,0.00,CLR,,0.00,WeatherDisplay:10.37,2013-03-30 05:28:00,
2013-03-30 01:33:00,38.6,30.4,30.10,East,79,5.8,5.8,72,0.00,CLR,,0.00,WeatherDisplay:10.37,2013-03-30 05:33:00,
2013-03-30 01:38:00,38.7,30.5,30.10,East,79,0.0,0.0,72,0.00,CLR,,0.00,WeatherDisplay:10.37,2013-03-30 05:38:00,
2013-03-30 01:43:00,38.9,30.7,30.10,North,359,3.5,3.5,72,0.00,CLR,,0.00,WeatherDisplay:10.37,2013-03-30 05:43:00,
2013-03-30 01:48:00,39.0,30.4,30.10,NNW,330,3.5,3.5,71,0.00,CLR,,0.00,WeatherDisplay:10.37,2013-03-30 05:48:00,
2013-03-30 01:53:00,38.8,30.6,30.10,NNW,330,0.0,0.6,72,0.00,CLR,,0.00,WeatherDisplay:10.37,2013-03-30 05:53:00,
2013-03-30 01:58:00,38.8,30.6,30.10,NW,323,3.5,3.5,72,0.00,CLR,,0.00,WeatherDisplay:10.37,2013-03-30 05:58:00,
2013-03-30 02:03:00,38.9,30.7,30.10,NW,320,5.8,5.8,72,0.00,CLR,,0.00,WeatherDisplay:10.37,2013-03-30 06:03:00,
2013-03-30 02:08:00,38.8,30.6,30.10,NW,311,0.0,0.0,72,0.00,CLR,,0.00,WeatherDisplay:10.37,2013-03-30 06:08:00,
2013-03-30 02:13:00,39.0,30.4,30.10,NW,311,0.0,0.0,71,0.00,CLR,,0.00,WeatherDisplay:10.37,2013-03-30 06:13:00,
2013-03-30 02:18:00,38.9,30.7,30.10,West,280,0.0,0.0,72,0.00,CLR,,0.00,WeatherDisplay:10.37,2013-03-30 06:18:00,
2013-03-30 02:23:00,38.7,30.5,30.10,NNW,330,0.0,0.0,72,0.00,CLR,,0.00,WeatherDisplay:10.37,2013-03-30 06:23:00,
2013-03-30 02:28:00,38.6,30.4,30.10,NNW,330,0.0,0.0,72,0.00,CLR,,0.00,WeatherDisplay:10.37,2013-03-30 06:28:00,
2013-03-30 02:33:00,38.7,30.8,30.10,NNW,330,0.0,0.0,73,0.00,CLR,,0.00,WeatherDisplay:10.37,2013-03-30 06:33:00,
2013-03-30 02:38:00,38.5,30.3,30.10,NNW,330,0.0,0.0,72,0.00,CLR,,0.00,WeatherDisplay:10.37,2013-03-30 06:38:00,
2013-03-30 02:43:00,38.6,30.4,30.10,NNW,330,0.0,0.0,72,0.00,CLR,,0.00,WeatherDisplay:10.37,2013-03-30 06:43:00,
2013-03-30 02:48:00,38.7,30.5,30.10,NNW,330,0.0,0.0,72,0.00,CLR,,0.00,WeatherDisplay:10.37,2013-03-30 06:48:00,
2013-03-30 02:53:00,38.8,30.6,30.10,NNW,333,2.2,2.2,72,0.00,CLR,,0.00,WeatherDisplay:10.37,2013-03-30 06:53:00,
2013-03-30 02:58:00,38.9,30.7,30.10,WNW,295,0.0,0.0,72,0.00,CLR,,0.00,WeatherDisplay:10.37,2013-03-30 06:58:00,
2013-03-30 03:03:00,38.8,30.6,30.10,WNW,295,0.0,0.0,72,0.00,CLR,,0.00,WeatherDisplay:10.37,2013-03-30 07:03:00,
2013-03-30 03:08:00,39.1,30.9,30.11,WNW,295,0.0,0.0,72,0.00,CLR,,0.00,WeatherDisplay:10.37,2013-03-30 07:08:00,
2013-03-30 03:13:00,39.1,30.9,30.11,WNW,295,0.0,0.0,72,0.00,CLR,,0.00,WeatherDisplay:10.37,2013-03-30 07:13:00,
2013-03-30 03:18:00,39.0,30.8,30.10,WNW,295,0.0,0.0,72,0.00,CLR,,0.00,WeatherDisplay:10.37,2013-03-30 07:18:00,
2013-03-30 03:23:00,38.7,30.5,30.10,WNW,295,0.0,0.0,72,0.00,CLR,,0.00,WeatherDisplay:10.37,2013-03-30 07:23:00,
2013-03-30 03:28:00,38.3,30.4,30.10,WNW,295,0.0,0.0,73,0.00,CLR,,0.00,WeatherDisplay:10.37,2013-03-30 07:28:00,
2013-03-30 03:33:00,38.2,30.7,30.10,WNW,295,0.0,0.0,74,0.00,CLR,,0.00,WeatherDisplay:10.37,2013-03-30 07:33:00,
2013-03-30 03:38:00,37.7,30.2,30.10,WNW,295,0.0,0.0,74,0.00,CLR,,0.00,WeatherDisplay:10.37,2013-03-30 07:38:00,
2013-03-30 03:43:00,37.4,29.9,30.10,WNW,295,0.0,0.0,74,0.00,CLR,,0.00,WeatherDisplay:10.37,2013-03-30 07:43:00,
2013-03-30 03:48:00,37.2,30.0,30.10,WNW,295,0.0,0.0,75,0.00,CLR,,0.00,WeatherDisplay:10.37,2013-03-30 07:48:00,
2013-03-30 03:53:00,37.1,29.9,30.10,WNW,295,0.0,0.0,75,0.00,CLR,,0.00,WeatherDisplay:10.37,2013-03-30 07:53:00,
2013-03-30 03:58:00,37.1,29.9,30.10,WNW,295,0.0,0.0,75,0.00,CLR,,0.00,WeatherDisplay:10.37,2013-03-30 07:58:00,
2013-03-30 04:03:00,37.2,30.0,30.11,WNW,295,0.0,0.0,75,0.00,CLR,,0.00,WeatherDisplay:10.37,2013-03-30 08:03:00,
2013-03-30 04:08:00,37.3,30.1,30.10,WNW,295,0.0,0.0,75,0.00,CLR,,0.00,WeatherDisplay:10.37,2013-03-30 08:08:00,
2013-03-30 04:13:00,37.3,29.8,30.10,WNW,295,0.0,0.0,74,0.00,CLR,,0.00,WeatherDisplay:10.37,2013-03-30 08:13:00,
2013-03-30 04:18:00,37.1,29.9,30.11,WNW,295,0.0,0.0,75,0.00,CLR,,0.00,WeatherDisplay:10.37,2013-03-30 08:18:00,
2013-03-30 04:23:00,36.7,29.6,30.11,WNW,295,0.0,0.0,75,0.00,CLR,,0.00,WeatherDisplay:10.37,2013-03-30 08:23:00,
2013-03-30 04:28:00,36.1,29.6,30.11,WNW,295,0.0,0.0,77,0.00,CLR,,0.00,WeatherDisplay:10.37,2013-03-30 08:28:00,
2013-03-30 04:33:00,36.0,29.5,30.11,WNW,295,0.0,0.0,77,0.00,CLR,,0.00,WeatherDisplay:10.37,2013-03-30 08:33:00,
2013-03-30 04:38:00,36.0,29.5,30.11,WNW,295,0.0,0.0,77,0.00,CLR,,0.00,WeatherDisplay:10.37,2013-03-30 08:38:00,
2013-03-30 04:43:00,36.0,29.5,30.11,WNW,295,0.0,0.0,77,0.00,CLR,,0.00,WeatherDisplay:10.37,2013-03-30 08:43:00,
2013-03-30 04:49:00,35.9,29.7,30.11,WNW,295,0.0,0.0,78,0.00,CLR,,0.00,WeatherDisplay:10.37,2013-03-30 08:49:00,
2013-03-30 04:54:00,35.7,29.6,30.11,WNW,295,0.0,0.0,78,0.00,CLR,,0.00,WeatherDisplay:10.37,2013-03-30 08:54:00,
2013-03-30 04:59:00,35.6,29.5,30.11,WNW,295,0.0,0.0,78,0.00,CLR,,0.00,WeatherDisplay:10.37,2013-03-30 08:59:00,
2013-03-30 05:04:00,35.2,29.1,30.11,WNW,295,0.0,0.0,78,0.00,CLR,,0.00,WeatherDisplay:10.37,2013-03-30 09:04:00,
2013-03-30 05:09:00,35.1,29.3,30.11,WNW,295,0.0,0.0,79,0.00,CLR,,0.00,WeatherDisplay:10.37,2013-03-30 09:09:00,
2013-03-30 05:14:00,35.0,29.2,30.11,WNW,295,0.0,0.0,79,0.00,CLR,,0.00,WeatherDisplay:10.37,2013-03-30 09:14:00,
2013-03-30 05:19:00,35.2,29.4,30.11,WNW,295,0.0,0.0,79,0.00,CLR,,0.00,WeatherDisplay:10.37,2013-03-30 09:19:00,
2013-03-30 05:24:00,35.3,29.5,30.11,WNW,295,0.0,0.0,79,0.00,CLR,,0.00,WeatherDisplay:10.37,2013-03-30 09:24:00,
2013-03-30 05:29:00,35.4,29.6,30.11,WNW,295,0.0,0.0,79,0.00,CLR,,0.00,WeatherDisplay:10.37,2013-03-30 09:29:00,
2013-03-30 05:35:00,35.6,29.8,30.11,WNW,295,0.0,0.0,79,0.00,CLR,,0.00,WeatherDisplay:10.37,2013-03-30 09:35:00,
2013-03-30 05:40:00,35.7,29.9,30.11,WNW,295,0.0,0.0,79,0.00,CLR,,0.00,WeatherDisplay:10.37,2013-03-30 09:40:00,
2013-03-30 05:45:00,35.6,29.8,30.11,WNW,295,0.0,0.0,79,0.00,CLR,,0.00,WeatherDisplay:10.37,2013-03-30 09:45:00,
2013-03-30 05:50:00,35.5,30.0,30.11,WNW,295,0.0,0.0,80,0.00,CLR,,0.00,WeatherDisplay:10.37,2013-03-30 09:50:00,
2013-03-30 05:55:00,35.6,30.1,30.11,WNW,295,0.0,0.0,80,0.00,CLR,,0.00,WeatherDisplay:10.37,2013-03-30 09:55:00,
2013-03-30 06:00:00,35.5,30.0,30.11,WNW,295,0.0,0.0,80,0.00,CLR,,0.00,WeatherDisplay:10.37,2013-03-30 10:00:00,
2013-03-30 06:05:00,35.6,29.8,30.11,WNW,295,0.0,0.0,79,0.00,CLR,,0.00,WeatherDisplay:10.37,2013-03-30 10:05:00,
2013-03-30 06:10:00,35.6,29.8,30.12,WNW,295,0.0,0.0,79,0.00,CLR,,0.00,WeatherDisplay:10.37,2013-03-30 10:10:00,
2013-03-30 06:15:00,35.5,30.0,30.12,East,80,2.3,2.3,80,0.00,CLR,,0.00,WeatherDisplay:10.37,2013-03-30 10:15:00,
2013-03-30 06:20:00,35.4,29.9,30.12,ENE,76,0.0,0.0,80,0.00,CLR,,0.00,WeatherDisplay:10.37,2013-03-30 10:20:00,
2013-03-30 06:25:00,35.4,29.9,30.12,ENE,76,0.0,0.0,80,0.00,CLR,,0.00,WeatherDisplay:10.37,2013-03-30 10:25:00,
2013-03-30 06:30:00,35.4,29.9,30.12,NW,325,1.2,1.2,80,0.00,CLR,,0.00,WeatherDisplay:10.37,2013-03-30 10:30:00,
2013-03-30 06:35:00,35.2,30.0,30.12,North,6,4.6,4.6,81,0.00,CLR,,0.00,WeatherDisplay:10.37,2013-03-30 10:35:00,
2013-03-30 06:40:00,35.2,30.0,30.12,NNE,16,1.2,0.0,81,0.00,CLR,,0.00,WeatherDisplay:10.37,2013-03-30 10:40:00,
2013-03-30 06:45:00,35.4,29.9,30.12,West,274,0.0,0.0,80,0.00,CLR,,0.00,WeatherDisplay:10.37,2013-03-30 10:45:00,
2013-03-30 06:50:00,35.6,30.1,30.12,North,354,1.2,1.2,80,0.00,CLR,,0.00,WeatherDisplay:10.37,2013-03-30 10:50:00,
2013-03-30 06:55:00,35.7,30.2,30.12,NNW,344,3.5,3.5,80,0.00,CLR,,0.00,WeatherDisplay:10.37,2013-03-30 10:55:00,
2013-03-30 07:00:00,35.8,30.3,30.12,North,1,0.0,0.0,80,0.00,CLR,,0.00,WeatherDisplay:10.37,2013-03-30 11:00:00,
2013-03-30 07:05:00,35.6,30.1,30.12,North,1,0.0,0.0,80,0.00,CLR,,0.00,WeatherDisplay:10.37,2013-03-30 11:05:00,
2013-03-30 07:10:00,35.6,30.1,30.12,NW,304,3.4,3.4,80,0.00,CLR,,0.00,WeatherDisplay:10.37,2013-03-30 11:10:00,
2013-03-30 07:15:00,35.7,30.2,30.12,NW,322,2.3,2.3,80,0.00,CLR,,0.00,WeatherDisplay:10.37,2013-03-30 11:15:00,
2013-03-30 07:20:00,36.1,30.6,30.12,WNW,287,2.3,2.3,80,0.00,CLR,,0.00,WeatherDisplay:10.37,2013-03-30 11:20:00,
2013-03-30 07:25:00,36.0,30.5,30.12,WNW,287,0.0,0.0,80,0.00,CLR,,0.00,WeatherDisplay:10.37,2013-03-30 11:25:00,
2013-03-30 07:30:00,36.1,30.6,30.12,WNW,301,2.3,2.3,80,0.00,CLR,,0.00,WeatherDisplay:10.37,2013-03-30 11:30:00,
2013-03-30 07:35:00,36.3,30.4,30.12,WNW,301,0.0,0.0,79,0.00,CLR,,0.00,WeatherDisplay:10.37,2013-03-30 11:35:00,
2013-03-30 07:40:00,36.9,30.7,30.12,NW,313,5.8,5.8,78,0.00,CLR,,0.00,WeatherDisplay:10.37,2013-03-30 11:40:00,
2013-03-30 07:45:00,37.6,30.8,30.12,North,350,0.0,0.5,76,0.00,CLR,,0.00,WeatherDisplay:10.37,2013-03-30 11:45:00,
2013-03-30 07:50:00,37.7,30.9,30.12,North,353,4.0,4.0,76,0.00,CLR,,0.00,WeatherDisplay:10.37,2013-03-30 11:50:00,
2013-03-30 07:55:00,38.4,31.2,30.12,NW,312,5.8,5.8,75,0.00,CLR,,0.00,WeatherDisplay:10.37,2013-03-30 11:55:00,
2013-03-30 08:00:00,38.8,31.3,30.12,North,350,0.0,0.0,74,0.00,CLR,,0.00,WeatherDisplay:10.37,2013-03-30 12:00:00,
2013-03-30 08:05:00,39.1,31.5,30.13,North,350,0.0,0.0,74,0.00,CLR,,0.00,WeatherDisplay:10.37,2013-03-30 12:05:00,
2013-03-30 08:10:00,39.4,31.5,30.13,NNW,329,3.5,3.5,73,0.00,CLR,,0.00,WeatherDisplay:10.37,2013-03-30 12:10:00,
2013-03-30 08:15:00,39.8,31.9,30.13,NNE,27,0.0,0.0,73,0.00,CLR,,0.00,WeatherDisplay:10.37,2013-03-30 12:15:00,
2013-03-30 08:20:00,40.2,31.9,30.12,North,1,6.9,6.9,72,0.00,CLR,,0.00,WeatherDisplay:10.37,2013-03-30 12:20:00,
2013-03-30 08:25:00,40.5,31.9,30.12,North,1,0.0,0.0,71,0.00,CLR,,0.00,WeatherDisplay:10.37,2013-03-30 12:25:00,
2013-03-30 08:30:00,41.0,32.4,30.12,North,1,0.0,0.0,71,0.00,CLR,,0.00,WeatherDisplay:10.37,2013-03-30 12:30:00,
2013-03-30 08:35:00,41.3,32.3,30.12,NNW,347,1.2,1.2,70,0.00,CLR,,0.00,WeatherDisplay:10.37,2013-03-30 12:35:00,
2013-03-30 08:40:00,41.8,32.0,30.12,NNW,337,5.8,5.8,68,0.00,CLR,,0.00,WeatherDisplay:10.37,2013-03-30 12:40:00,
2013-03-30 08:45:00,42.1,32.0,30.12,NNE,20,6.9,6.9,67,0.00,CLR,,0.00,WeatherDisplay:10.37,2013-03-30 12:45:00,
2013-03-30 08:50:00,41.9,31.8,30.12,NW,326,6.9,6.9,67,0.00,CLR,,0.00,WeatherDisplay:10.37,2013-03-30 12:50:00,
2013-03-30 08:55:00,42.3,32.5,30.12,North,356,6.9,6.9,68,0.00,CLR,,0.00,WeatherDisplay:10.37,2013-03-30 12:55:00,
2013-03-30 09:00:00,42.7,32.2,30.12,NNW,336,8.1,8.1,66,0.00,CLR,,0.00,WeatherDisplay:10.37,2013-03-30 13:00:00,
2013-03-30 09:05:00,43.2,33.0,30.12,NNW,335,5.8,5.8,67,0.00,CLR,,0.00,WeatherDisplay:10.37,2013-03-30 13:05:00,
2013-03-30 09:10:00,43.5,32.9,30.12,NNW,333,0.0,0.0,66,0.00,CLR,,0.00,WeatherDisplay:10.37,2013-03-30 13:10:00,
2013-03-30 09:15:00,44.0,33.0,30.12,North,0,4.6,4.6,65,0.00,CLR,,0.00,WeatherDisplay:10.37,2013-03-30 13:15:00,
2013-03-30 09:20:00,44.7,32.9,30.11,ENE,61,4.6,0.0,63,0.00,CLR,,0.00,WeatherDisplay:10.37,2013-03-30 13:20:00,
2013-03-30 09:25:00,45.1,33.3,30.12,NW,309,3.5,3.5,63,0.00,CLR,,0.00,WeatherDisplay:10.37,2013-03-30 13:25:00,
2013-03-30 09:30:00,45.1,32.5,30.12,NW,311,6.9,6.9,61,0.00,CLR,,0.00,WeatherDisplay:10.37,2013-03-30 13:30:00,
2013-03-30 09:35:00,45.2,33.4,30.12,WNW,295,5.8,5.8,63,0.00,CLR,,0.00,WeatherDisplay:10.37,2013-03-30 13:35:00,
2013-03-30 09:41:00,45.2,32.6,30.11,NW,318,5.8,5.8,61,0.00,CLR,,0.00,WeatherDisplay:10.37,2013-03-30 13:41:00,
2013-03-30 09:46:00,45.8,32.7,30.11,NW,319,5.8,5.8,60,0.00,CLR,,0.00,WeatherDisplay:10.37,2013-03-30 13:46:00,
2013-03-30 09:51:00,45.8,32.7,30.11,NW,318,5.8,5.8,60,0.00,CLR,,0.00,WeatherDisplay:10.37,2013-03-30 13:51:00,
2013-03-30 09:57:00,46.0,32.5,30.11,NW,318,6.9,6.9,59,0.00,CLR,,0.00,WeatherDisplay:10.37,2013-03-30 13:57:00,
2013-03-30 10:02:00,45.9,32.4,30.11,NW,311,5.8,5.8,59,0.00,CLR,,0.00,WeatherDisplay:10.37,2013-03-30 14:02:00,
2013-03-30 10:08:00,46.5,32.5,30.11,NW,323,5.8,5.8,58,0.00,CLR,,0.00,WeatherDisplay:10.37,2013-03-30 14:08:00,
2013-03-30 10:13:00,46.8,32.0,30.11,NNE,32,8.1,8.1,56,0.00,CLR,,0.00,WeatherDisplay:10.37,2013-03-30 14:13:00,
2013-03-30 10:18:00,46.9,32.0,30.11,West,278,6.9,6.9,56,0.00,CLR,,0.00,WeatherDisplay:10.37,2013-03-30 14:18:00,
2013-03-30 10:23:00,47.6,32.3,30.11,North,352,5.8,5.8,55,0.00,CLR,,0.00,WeatherDisplay:10.37,2013-03-30 14:23:00,
2013-03-30 10:28:00,47.8,31.5,30.11,NNE,27,8.1,8.1,53,0.00,CLR,,0.00,WeatherDisplay:10.37,2013-03-30 14:28:00,
2013-03-30 10:33:00,47.7,32.3,30.11,ENE,75,3.5,3.5,55,0.00,CLR,,0.00,WeatherDisplay:10.37,2013-03-30 14:33:00,
2013-03-30 10:38:00,48.1,31.8,30.11,NNW,332,2.3,2.3,53,0.00,CLR,,0.00,WeatherDisplay:10.37,2013-03-30 14:38:00,
2013-03-30 10:43:00,48.6,32.3,30.11,West,274,0.0,0.0,53,0.00,CLR,,0.00,WeatherDisplay:10.37,2013-03-30 14:43:00,
2013-03-30 10:48:00,48.6,31.3,30.10,West,275,5.8,5.8,51,0.00,CLR,,0.00,WeatherDisplay:10.37,2013-03-30 14:48:00,
2013-03-30 10:53:00,48.7,30.9,30.10,NE,48,8.1,8.1,50,0.00,CLR,,0.00,WeatherDisplay:10.37,2013-03-30 14:53:00,
2013-03-30 10:58:00,49.7,31.3,30.10,NNW,344,2.3,2.3,49,0.00,CLR,,0.00,WeatherDisplay:10.37,2013-03-30 14:58:00,
2013-03-30 11:03:00,49.9,28.9,30.10,ENE,61,9.2,9.2,44,0.00,CLR,,0.00,WeatherDisplay:10.37,2013-03-30 15:03:00,
2013-03-30 11:08:00,50.1,29.0,30.10,North,353,9.2,9.2,44,0.00,CLR,,0.00,WeatherDisplay:10.37,2013-03-30 15:08:00,
2013-03-30 11:13:00,50.4,30.9,30.10,NW,319,3.5,3.7,47,0.00,CLR,,0.00,WeatherDisplay:10.37,2013-03-30 15:13:00,
2013-03-30 11:19:00,49.7,28.7,30.09,North,360,8.1,8.1,44,0.00,CLR,,0.00,WeatherDisplay:10.37,2013-03-30 15:19:00,
2013-03-30 11:24:00,50.3,28.1,30.09,NE,52,8.1,8.1,42,0.00,CLR,,0.00,WeatherDisplay:10.37,2013-03-30 15:24:00,
2013-03-30 11:29:00,50.1,28.5,30.09,NNW,347,8.1,8.1,43,0.00,CLR,,0.00,WeatherDisplay:10.37,2013-03-30 15:29:00,
2013-03-30 11:34:00,50.7,30.1,30.09,ENE,69,6.9,6.9,45,0.00,CLR,,0.00,WeatherDisplay:10.37,2013-03-30 15:34:00,
2013-03-30 11:39:00,51.0,27.5,30.08,North,3,0.0,0.0,40,0.00,CLR,,0.00,WeatherDisplay:10.37,2013-03-30 15:39:00,
2013-03-30 11:44:00,51.1,29.4,30.08,SE,128,2.3,2.3,43,0.00,CLR,,0.00,WeatherDisplay:10.37,2013-03-30 15:44:00,
2013-03-30 11:49:00,51.6,24.1,30.08,North,357,9.2,9.2,34,0.00,CLR,,0.00,WeatherDisplay:10.37,2013-03-30 15:49:00,
2013-03-30 11:55:00,51.4,26.0,30.08,NW,311,8.1,8.1,37,0.00,CLR,,0.00,WeatherDisplay:10.37,2013-03-30 15:55:00,
2013-03-30 12:00:00,51.1,23.7,30.08,North,8,8.1,8.1,34,0.00,CLR,,0.00,WeatherDisplay:10.37,2013-03-30 16:00:00,
2013-03-30 12:05:00,51.3,24.6,30.08,East,85,4.6,4.6,35,0.00,CLR,,0.00,WeatherDisplay:10.37,2013-03-30 16:05:00,
2013-03-30 12:12:00,51.7,22.8,30.08,North,359,9.2,9.2,32,0.00,CLR,,0.00,WeatherDisplay:10.37,2013-03-30 16:12:00,
2013-03-30 12:18:00,51.8,25.7,30.08,NNW,332,6.9,6.9,36,0.00,CLR,,0.00,WeatherDisplay:10.37,2013-03-30 16:18:00,
2013-03-30 12:23:00,51.6,24.8,30.08,NNW,336,13.8,13.8,35,0.00,CLR,,0.00,WeatherDisplay:10.37,2013-03-30 16:23:00,
2013-03-30 12:28:00,51.3,24.6,30.08,NNW,342,12.7,12.7,35,0.00,CLR,,0.00,WeatherDisplay:10.37,2013-03-30 16:28:00,
2013-03-30 12:33:00,51.1,25.1,30.08,NNW,328,6.9,6.9,36,0.00,CLR,,0.00,WeatherDisplay:10.37,2013-03-30 16:33:00,
2013-03-30 12:38:00,51.3,24.6,30.07,West,270,13.8,13.8,35,0.00,CLR,,0.00,WeatherDisplay:10.37,2013-03-30 16:38:00,
2013-03-30 12:43:00,52.2,26.1,30.07,West,263,5.8,5.8,36,0.00,CLR,,0.00,WeatherDisplay:10.37,2013-03-30 16:43:00,
2013-03-30 12:48:00,52.7,25.1,30.07,NNE,27,10.4,10.4,34,0.00,CLR,,0.00,WeatherDisplay:10.37,2013-03-30 16:48:00,
2013-03-30 12:53:00,52.7,26.5,30.07,SW,216,4.6,4.6,36,0.00,CLR,,0.00,WeatherDisplay:10.37,2013-03-30 16:53:00,
2013-03-30 12:58:00,53.2,25.6,30.07,NNE,31,5.8,5.8,34,0.00,CLR,,0.00,WeatherDisplay:10.37,2013-03-30 16:58:00,
2013-03-30 13:03:00,52.8,25.9,30.07,NE,51,5.8,5.8,35,0.00,CLR,,0.00,WeatherDisplay:10.37,2013-03-30 17:03:00,
2013-03-30 13:08:00,52.9,26.0,30.07,East,90,3.5,3.5,35,0.00,CLR,,0.00,WeatherDisplay:10.37,2013-03-30 17:08:00,
2013-03-30 13:13:00,52.9,27.3,30.06,NW,319,4.6,4.6,37,0.00,CLR,,0.00,WeatherDisplay:10.37,2013-03-30 17:13:00,
2013-03-30 13:18:00,52.5,26.3,30.06,ENE,66,5.6,5.6,36,0.00,CLR,,0.00,WeatherDisplay:10.37,2013-03-30 17:18:00,
2013-03-30 13:23:00,51.9,25.8,30.06,NE,38,4.6,4.6,36,0.00,CLR,,0.00,WeatherDisplay:10.37,2013-03-30 17:23:00,
2013-03-30 13:28:00,51.7,26.3,30.05,NNE,31,4.6,4.6,37,0.00,CLR,,0.00,WeatherDisplay:10.37,2013-03-30 17:28:00,
2013-03-30 13:33:00,51.8,26.4,30.05,NNE,27,5.8,5.8,37,0.00,CLR,,0.00,WeatherDisplay:10.37,2013-03-30 17:33:00,
2013-03-30 13:38:00,51.9,25.8,30.05,East,79,4.6,4.6,36,0.00,CLR,,0.00,WeatherDisplay:10.37,2013-03-30 17:38:00,
2013-03-30 13:43:00,52.0,25.2,30.05,North,354,8.1,8.1,35,0.00,CLR,,0.00,WeatherDisplay:10.37,2013-03-30 17:43:00,
2013-03-30 13:48:00,51.8,25.0,30.04,NE,42,5.8,5.8,35,0.00,CLR,,0.00,WeatherDisplay:10.37,2013-03-30 17:48:00,
2013-03-30 13:53:00,52.1,25.3,30.04,West,274,8.1,8.1,35,0.00,CLR,,0.00,WeatherDisplay:10.37,2013-03-30 17:53:00,
2013-03-30 13:58:00,52.7,25.8,30.04,WSW,246,4.6,4.6,35,0.00,CLR,,0.00,WeatherDisplay:10.37,2013-03-30 17:58:00,
2013-03-30 14:03:00,53.0,24.7,30.03,WSW,254,5.8,5.8,33,0.00,CLR,,0.00,WeatherDisplay:10.37,2013-03-30 18:03:00,
2013-03-30 14:08:00,53.7,27.4,30.03,NNW,328,8.1,8.1,36,0.00,CLR,,0.00,WeatherDisplay:10.37,2013-03-30 18:08:00,
2013-03-30 14:13:00,54.0,24.0,30.03,NNE,30,6.9,6.9,31,0.00,CLR,,0.00,WeatherDisplay:10.37,2013-03-30 18:13:00,
2013-03-30 14:18:00,54.0,24.8,30.03,North,4,6.9,6.9,32,0.00,CLR,,0.00,WeatherDisplay:10.37,2013-03-30 18:18:00,
2013-03-30 14:23:00,53.6,25.2,30.03,NE,44,5.8,5.8,33,0.00,CLR,,0.00,WeatherDisplay:10.37,2013-03-30 18:23:00,
2013-03-30 14:29:00,53.3,25.6,30.02,NNE,21,0.0,0.0,34,0.00,CLR,,0.00,WeatherDisplay:10.37,2013-03-30 18:29:00,
2013-03-30 14:35:00,53.3,24.9,30.02,NE,45,6.9,6.9,33,0.00,CLR,,0.00,WeatherDisplay:10.37,2013-03-30 18:35:00,
2013-03-30 14:40:00,53.4,25.7,30.02,WNW,288,1.2,0.0,34,0.00,CLR,,0.00,WeatherDisplay:10.37,2013-03-30 18:40:00,
2013-03-30 14:45:00,53.6,26.6,30.02,North,1,5.8,5.8,35,0.00,CLR,,0.00,WeatherDisplay:10.37,2013-03-30 18:45:00,
2013-03-30 14:50:00,54.1,25.6,30.01,East,80,5.8,5.8,33,0.00,CLR,,0.00,WeatherDisplay:10.37,2013-03-30 18:50:00,
2013-03-30 14:55:00,54.1,24.9,30.01,NNW,337,11.5,11.5,32,0.00,CLR,,0.00,WeatherDisplay:10.37,2013-03-30 18:55:00,
2013-03-30 15:01:00,53.4,25.0,30.01,NE,55,8.1,8.1,33,0.00,CLR,,0.00,WeatherDisplay:10.37,2013-03-30 19:01:00,
2013-03-30 15:06:00,53.3,24.9,30.01,NE,55,4.6,4.6,33,0.00,CLR,,0.00,WeatherDisplay:10.37,2013-03-30 19:06:00,
2013-03-30 15:12:00,53.3,26.3,30.01,NNW,346,3.5,3.5,35,0.00,CLR,,0.00,WeatherDisplay:10.37,2013-03-30 19:12:00,
2013-03-30 15:17:00,52.8,25.2,30.02,NW,308,8.1,8.1,34,0.00,CLR,,0.00,WeatherDisplay:10.37,2013-03-30 19:17:00,
2013-03-30 15:22:00,52.7,24.4,30.02,West,271,9.2,9.2,33,0.00,CLR,,0.00,WeatherDisplay:10.37,2013-03-30 19:22:00,
2013-03-30 15:27:00,52.9,26.0,30.01,WNW,298,9.2,9.2,35,0.00,CLR,,0.00,WeatherDisplay:10.37,2013-03-30 19:27:00,
2013-03-30 15:32:00,53.8,24.6,30.01,WNW,289,4.6,4.6,32,0.00,CLR,,0.00,WeatherDisplay:10.37,2013-03-30 19:32:00,
2013-03-30 15:38:00,54.4,24.4,30.01,North,3,4.6,4.6,31,0.00,CLR,,0.00,WeatherDisplay:10.37,2013-03-30 19:38:00,
2013-03-30 15:44:00,54.7,25.4,30.01,NNE,32,4.6,4.6,32,0.00,CLR,,0.00,WeatherDisplay:10.37,2013-03-30 19:44:00,
2013-03-30 15:49:00,54.0,25.5,30.01,NW,322,2.3,2.3,33,0.00,CLR,,0.00,WeatherDisplay:10.37,2013-03-30 19:49:00,
2013-03-30 15:54:00,53.6,24.5,30.01,NNE,30,5.8,5.8,32,0.00,CLR,,0.00,WeatherDisplay:10.37,2013-03-30 19:54:00,
2013-03-30 15:59:00,53.6,24.5,30.01,NW,320,3.2,3.2,32,0.00,CLR,,0.00,WeatherDisplay:10.37,2013-03-30 19:59:00,
2013-03-30 16:04:00,53.9,25.5,30.01,NE,44,3.5,3.5,33,0.00,CLR,,0.00,WeatherDisplay:10.37,2013-03-30 20:04:00,
2013-03-30 16:09:00,54.3,23.5,30.01,WNW,296,9.2,9.2,30,0.00,CLR,,0.00,WeatherDisplay:10.37,2013-03-30 20:09:00,
2013-03-30 16:14:00,54.8,24.0,30.00,WNW,296,10.4,10.4,30,0.00,CLR,,0.00,WeatherDisplay:10.37,2013-03-30 20:14:00,
2013-03-30 16:19:00,54.9,24.0,30.00,NNW,329,8.1,8.1,30,0.00,CLR,,0.00,WeatherDisplay:10.37,2013-03-30 20:19:00,
2013-03-30 16:24:00,54.7,23.9,30.01,WNW,302,5.9,5.9,30,0.00,CLR,,0.00,WeatherDisplay:10.37,2013-03-30 20:24:00,
2013-03-30 16:29:00,55.0,22.5,30.00,West,274,4.6,4.6,28,0.00,CLR,,0.00,WeatherDisplay:10.37,2013-03-30 20:29:00,
2013-03-30 16:34:00,54.9,22.4,30.00,WNW,294,5.8,5.8,28,0.00,CLR,,0.00,WeatherDisplay:10.37,2013-03-30 20:34:00,
2013-03-30 16:39:00,55.2,22.7,30.00,North,356,3.5,3.5,28,0.00,CLR,,0.00,WeatherDisplay:10.37,2013-03-30 20:39:00,
2013-03-30 16:44:00,55.3,23.6,30.00,NNE,17,4.6,4.6,29,0.00,CLR,,0.00,WeatherDisplay:10.37,2013-03-30 20:44:00,
2013-03-30 16:49:00,55.5,23.8,30.00,WNW,298,5.8,5.8,29,0.00,CLR,,0.00,WeatherDisplay:10.37,2013-03-30 20:49:00,
2013-03-30 16:54:00,56.0,24.2,30.00,NW,306,2.3,2.3,29,0.00,CLR,,0.00,WeatherDisplay:10.37,2013-03-30 20:54:00,
2013-03-30 16:59:00,56.1,24.3,30.00,NW,318,5.5,5.5,29,0.00,CLR,,0.00,WeatherDisplay:10.37,2013-03-30 20:59:00,
2013-03-30 17:04:00,56.2,23.5,30.00,NNW,329,5.8,5.8,28,0.00,CLR,,0.00,WeatherDisplay:10.37,2013-03-30 21:04:00,
2013-03-30 17:09:00,56.4,23.7,30.00,ENE,78,5.8,5.8,28,0.00,CLR,,0.00,WeatherDisplay:10.37,2013-03-30 21:09:00,
2013-03-30 17:14:00,56.1,25.1,30.00,NNW,328,3.5,3.5,30,0.00,CLR,,0.00,WeatherDisplay:10.37,2013-03-30 21:14:00,
2013-03-30 17:19:00,56.1,23.4,30.00,ENE,59,3.5,3.5,28,0.00,CLR,,0.00,WeatherDisplay:10.37,2013-03-30 21:19:00,
2013-03-30 17:24:00,56.1,22.6,30.00,NW,308,6.4,6.4,27,0.00,CLR,,0.00,WeatherDisplay:10.37,2013-03-30 21:24:00,
2013-03-30 17:29:00,55.9,22.4,30.00,ENE,64,4.6,4.6,27,0.00,CLR,,0.00,WeatherDisplay:10.37,2013-03-30 21:29:00,
2013-03-30 17:34:00,55.9,22.4,30.00,NE,51,1.2,1.2,27,0.00,CLR,,0.00,WeatherDisplay:10.37,2013-03-30 21:34:00,
2013-03-30 17:39:00,55.9,22.4,30.00,WNW,289,5.8,5.8,27,0.00,CLR,,0.00,WeatherDisplay:10.37,2013-03-30 21:39:00,
2013-03-30 17:44:00,55.9,21.5,30.00,NE,34,6.9,6.9,26,0.00,CLR,,0.00,WeatherDisplay:10.37,2013-03-30 21:44:00,
2013-03-30 17:49:00,55.2,21.8,30.00,WNW,302,5.8,5.8,27,0.00,CLR,,0.00,WeatherDisplay:10.37,2013-03-30 21:49:00,
2013-03-30 17:54:00,54.8,22.3,30.01,NNW,329,5.8,5.8,28,0.00,CLR,,0.00,WeatherDisplay:10.37,2013-03-30 21:54:00,
2013-03-30 17:59:00,54.6,22.1,30.01,WNW,292,6.9,6.9,28,0.00,CLR,,0.00,WeatherDisplay:10.37,2013-03-30 21:59:00,
2013-03-30 18:04:00,54.7,22.2,30.01,NW,312,5.8,5.8,28,0.00,CLR,,0.00,WeatherDisplay:10.37,2013-03-30 22:04:00,
2013-03-30 18:09:00,54.5,22.1,30.01,West,271,6.9,6.9,28,0.00,CLR,,0.00,WeatherDisplay:10.37,2013-03-30 22:09:00,
2013-03-30 18:14:00,54.2,21.8,30.01,West,263,4.6,4.6,28,0.00,CLR,,0.00,WeatherDisplay:10.37,2013-03-30 22:14:00,
2013-03-30 18:19:00,54.1,20.8,30.01,WNW,282,5.8,5.8,27,0.00,CLR,,0.00,WeatherDisplay:10.37,2013-03-30 22:19:00,
2013-03-30 18:24:00,53.9,21.5,30.01,NW,304,1.2,1.2,28,0.00,CLR,,0.00,WeatherDisplay:10.37,2013-03-30 22:24:00,
2013-03-30 18:29:00,53.7,21.4,30.02,NNW,336,6.9,6.9,28,0.00,CLR,,0.00,WeatherDisplay:10.37,2013-03-30 22:29:00,
2013-03-30 18:34:00,53.3,21.0,30.02,NNW,329,4.6,4.6,28,0.00,CLR,,0.00,WeatherDisplay:10.37,2013-03-30 22:34:00,
2013-03-30 18:39:00,53.3,21.8,30.02,NW,320,1.2,1.5,29,0.00,CLR,,0.00,WeatherDisplay:10.37,2013-03-30 22:39:00,
2013-03-30 18:44:00,53.0,20.8,30.02,NNW,332,6.9,6.9,28,0.00,CLR,,0.00,WeatherDisplay:10.37,2013-03-30 22:44:00,
2013-03-30 18:50:00,52.7,20.5,30.02,NNE,18,3.5,3.5,28,0.00,CLR,,0.00,WeatherDisplay:10.37,2013-03-30 22:50:00,
2013-03-30 18:55:00,52.6,21.2,30.03,WNW,291,1.2,0.0,29,0.00,CLR,,0.00,WeatherDisplay:10.37,2013-03-30 22:55:00,
2013-03-30 19:00:00,52.4,21.1,30.03,West,268,3.0,3.0,29,0.00,CLR,,0.00,WeatherDisplay:10.37,2013-03-30 23:00:00,
2013-03-30 19:05:00,52.3,21.8,30.03,NW,315,4.6,4.6,30,0.00,CLR,,0.00,WeatherDisplay:10.37,2013-03-30 23:05:00,
2013-03-30 19:10:00,51.8,21.3,30.03,NW,312,4.6,4.6,30,0.00,CLR,,0.00,WeatherDisplay:10.37,2013-03-30 23:10:00,
2013-03-30 19:16:00,51.7,21.3,30.03,North,350,2.4,2.4,30,0.00,CLR,,0.00,WeatherDisplay:10.37,2013-03-30 23:16:00,
2013-03-30 19:22:00,51.3,21.7,30.04,NNW,336,2.3,2.3,31,0.00,CLR,,0.00,WeatherDisplay:10.37,2013-03-30 23:22:00,
2013-03-30 19:27:00,51.1,22.3,30.04,NW,306,4.6,4.6,32,0.00,CLR,,0.00,WeatherDisplay:10.37,2013-03-30 23:27:00,
2013-03-30 19:32:00,50.7,22.6,30.04,NW,306,1.2,1.2,33,0.00,CLR,,0.00,WeatherDisplay:10.37,2013-03-30 23:32:00,
2013-03-30 19:38:00,50.2,21.5,30.04,NW,306,0.0,0.0,32,0.00,CLR,,0.00,WeatherDisplay:10.37,2013-03-30 23:38:00,
2013-03-30 19:43:00,49.9,21.2,30.05,NW,306,0.0,0.0,32,0.00,CLR,,0.00,WeatherDisplay:10.37,2013-03-30 23:43:00,
2013-03-30 19:48:00,49.4,21.5,30.05,NW,306,0.0,0.0,33,0.00,CLR,,0.00,WeatherDisplay:10.37,2013-03-30 23:48:00,
2013-03-30 19:53:00,49.0,21.8,30.05,West,268,1.2,1.2,34,0.00,CLR,,0.00,WeatherDisplay:10.37,2013-03-30 23:53:00,
2013-03-30 19:58:00,48.5,22.1,30.05,North,357,0.0,0.0,35,0.00,CLR,,0.00,WeatherDisplay:10.37,2013-03-30 23:58:00,
2013-03-30 20:03:00,48.0,21.7,30.06,North,349,0.0,0.0,35,0.00,CLR,,0.00,WeatherDisplay:10.37,2013-03-31 00:03:00,
2013-03-30 20:08:00,47.6,22.0,30.06,North,349,0.0,0.0,36,0.00,CLR,,0.00,WeatherDisplay:10.37,2013-03-31 00:08:00,
2013-03-30 20:14:00,47.3,21.7,30.06,NE,51,5.8,5.8,36,0.00,CLR,,0.00,WeatherDisplay:10.37,2013-03-31 00:14:00,
2013-03-30 20:19:00,47.7,21.4,30.06,NNE,23,2.3,4.2,35,0.00,CLR,,0.00,WeatherDisplay:10.37,2013-03-31 00:19:00,
2013-03-30 20:24:00,48.3,21.2,30.07,NNW,340,4.6,4.6,34,0.00,CLR,,0.00,WeatherDisplay:10.37,2013-03-31 00:24:00,
2013-03-30 20:29:00,48.9,21.8,30.07,NE,54,5.8,5.8,34,0.00,CLR,,0.00,WeatherDisplay:10.37,2013-03-31 00:29:00,
2013-03-30 20:34:00,49.0,21.8,30.08,NNE,21,2.3,2.3,34,0.00,CLR,,0.00,WeatherDisplay:10.37,2013-03-31 00:34:00,
2013-03-30 20:39:00,48.9,21.8,30.08,North,1,4.6,4.6,34,0.00,CLR,,0.00,WeatherDisplay:10.37,2013-03-31 00:39:00,
2013-03-30 20:44:00,48.5,22.8,30.08,NNW,339,2.3,2.3,36,0.00,CLR,,0.00,WeatherDisplay:10.37,2013-03-31 00:44:00,
2013-03-30 20:49:00,48.3,22.6,30.08,NE,37,1.2,0.0,36,0.00,CLR,,0.00,WeatherDisplay:10.37,2013-03-31 00:49:00,
2013-03-30 20:54:00,48.0,22.3,30.08,NNE,27,0.0,1.4,36,0.00,CLR,,0.00,WeatherDisplay:10.37,2013-03-31 00:54:00,
2013-03-30 20:59:00,47.8,22.1,30.08,NE,35,0.0,0.0,36,0.00,CLR,,0.00,WeatherDisplay:10.37,2013-03-31 00:59:00,
2013-03-30 21:04:00,47.7,22.1,30.08,NNE,28,3.5,3.5,36,0.00,CLR,,0.00,WeatherDisplay:10.37,2013-03-31 01:04:00,
2013-03-30 21:09:00,47.4,22.4,30.09,North,359,0.0,0.0,37,0.00,CLR,,0.00,WeatherDisplay:10.37,2013-03-31 01:09:00,
2013-03-30 21:14:00,46.9,22.0,30.09,North,352,0.0,0.0,37,0.00,CLR,,0.00,WeatherDisplay:10.37,2013-03-31 01:14:00,
2013-03-30 21:19:00,46.7,21.8,30.09,North,352,0.0,0.0,37,0.00,CLR,,0.00,WeatherDisplay:10.37,2013-03-31 01:19:00,
2013-03-30 21:24:00,46.6,21.7,30.09,North,352,0.0,0.0,37,0.00,CLR,,0.00,WeatherDisplay:10.37,2013-03-31 01:24:00,
2013-03-30 21:29:00,46.7,21.8,30.09,North,11,0.0,0.0,37,0.00,CLR,,0.00,WeatherDisplay:10.37,2013-03-31 01:29:00,
2013-03-30 21:34:00,46.6,22.4,30.09,North,11,0.0,0.0,38,0.00,CLR,,0.00,WeatherDisplay:10.37,2013-03-31 01:34:00,
2013-03-30 21:39:00,46.3,22.1,30.09,North,11,0.0,0.0,38,0.00,CLR,,0.00,WeatherDisplay:10.37,2013-03-31 01:39:00,
2013-03-30 21:44:00,45.8,22.3,30.09,NNE,18,3.5,0.0,39,0.00,CLR,,0.00,WeatherDisplay:10.37,2013-03-31 01:44:00,
2013-03-30 21:49:00,45.7,22.8,30.09,NNE,18,0.0,0.0,40,0.00,CLR,,0.00,WeatherDisplay:10.37,2013-03-31 01:49:00,
2013-03-30 21:54:00,45.7,22.2,30.09,NNE,18,0.0,0.0,39,0.00,CLR,,0.00,WeatherDisplay:10.37,2013-03-31 01:54:00,
2013-03-30 21:59:00,45.3,21.8,30.09,NNE,18,0.0,0.0,39,0.00,CLR,,0.00,WeatherDisplay:10.37,2013-03-31 01:59:00,
2013-03-30 22:04:00,45.1,22.2,30.09,NNE,18,0.0,0.0,40,0.00,CLR,,0.00,WeatherDisplay:10.37,2013-03-31 02:04:00,
2013-03-30 22:09:00,44.7,21.9,30.09,NNE,18,0.0,0.0,40,0.00,CLR,,0.00,WeatherDisplay:10.37,2013-03-31 02:09:00,
2013-03-30 22:14:00,44.7,21.9,30.10,NNE,18,0.0,0.0,40,0.00,CLR,,0.00,WeatherDisplay:10.37,2013-03-31 02:14:00,
2013-03-30 22:19:00,44.3,22.1,30.10,NNE,18,0.0,0.0,41,0.00,CLR,,0.00,WeatherDisplay:10.37,2013-03-31 02:19:00,
2013-03-30 22:24:00,44.0,21.8,30.10,NNE,18,0.0,0.0,41,0.00,CLR,,0.00,WeatherDisplay:10.37,2013-03-31 02:24:00,
2013-03-30 22:29:00,43.6,22.0,30.10,NNE,18,0.0,0.0,42,0.00,CLR,,0.00,WeatherDisplay:10.37,2013-03-31 02:29:00,
2013-03-30 22:34:00,43.5,21.9,30.10,NNE,18,0.0,0.0,42,0.00,CLR,,0.00,WeatherDisplay:10.37,2013-03-31 02:34:00,
2013-03-30 22:39:00,43.4,21.8,30.10,NNE,18,0.0,0.0,42,0.00,CLR,,0.00,WeatherDisplay:10.37,2013-03-31 02:39:00,
2013-03-30 22:44:00,43.2,21.7,30.10,NNE,18,0.0,0.0,42,0.00,CLR,,0.00,WeatherDisplay:10.37,2013-03-31 02:44:00,
2013-03-30 22:49:00,42.9,21.9,30.10,NNE,18,0.0,0.0,43,0.00,CLR,,0.00,WeatherDisplay:10.37,2013-03-31 02:49:00,
2013-03-30 22:54:00,42.8,21.9,30.10,NNE,18,0.0,0.0,43,0.00,CLR,,0.00,WeatherDisplay:10.37,2013-03-31 02:54:00,
2013-03-30 22:59:00,42.7,21.8,30.10,NNE,18,0.0,0.0,43,0.00,CLR,,0.00,WeatherDisplay:10.37,2013-03-31 02:59:00,
2013-03-30 23:04:00,42.8,21.9,30.10,NNE,18,0.0,0.0,43,0.00,CLR,,0.00,WeatherDisplay:10.37,2013-03-31 03:04:00,
2013-03-30 23:09:00,42.7,21.8,30.10,NNE,18,0.0,0.0,43,0.00,CLR,,0.00,WeatherDisplay:10.37,2013-03-31 03:09:00,
2013-03-30 23:14:00,42.5,21.6,30.10,NNE,18,0.0,0.0,43,0.00,CLR,,0.00,WeatherDisplay:10.37,2013-03-31 03:14:00,
2013-03-30 23:19:00,42.3,21.4,30.10,NNE,18,0.0,0.0,43,0.00,CLR,,0.00,WeatherDisplay:10.37,2013-03-31 03:19:00,
2013-03-30 23:24:00,42.2,21.9,30.10,NNE,18,0.0,0.0,44,0.00,CLR,,0.00,WeatherDisplay:10.37,2013-03-31 03:24:00,
2013-03-30 23:29:00,42.2,21.9,30.10,NNE,18,0.0,0.0,44,0.00,CLR,,0.00,WeatherDisplay:10.37,2013-03-31 03:29:00,
2013-03-30 23:34:00,41.9,21.6,30.11,NNE,18,0.0,0.0,44,0.00,CLR,,0.00,WeatherDisplay:10.37,2013-03-31 03:34:00,
2013-03-30 23:39:00,42.3,21.9,30.11,NNE,18,0.0,0.0,44,0.00,CLR,,0.00,WeatherDisplay:10.37,2013-03-31 03:39:00,
2013-03-30 23:44:00,41.9,21.6,30.11,NNE,18,0.0,0.0,44,0.00,CLR,,0.00,WeatherDisplay:10.37,2013-03-31 03:44:00,
2013-03-30 23:49:00,41.9,22.1,30.11,NNE,18,0.0,0.0,45,0.00,CLR,,0.00,WeatherDisplay:10.37,2013-03-31 03:49:00,
2013-03-30 23:54:00,41.5,22.3,30.11,NNE,18,0.0,0.0,46,0.00,CLR,,0.00,WeatherDisplay:10.37,2013-03-31 03:54:00,